Location: Les Coudrans
(46.1056°N, 1.1158°W)
Time: 08:00:09
(UTC+00:00)

Lacrosse 4 Rocket - Visible Passes

Search period start: 21 June 2021 00:00
Search period end: 01 July 2021 00:00
Orbit: 541 x 616 km, 68.0° (Epoch: 20 June)

Date Brightness Start Highest point End Pass type
(mag) Time Alt. Az. Time Alt. Az. Time Alt. Az.
21 Jun 2.4 01:15:00 10° NNW 01:18:56 44° NE 01:22:49 10° SE visible
21 Jun 2.8 02:54:20 10° WNW 02:57:17 19° WSW 02:59:10 14° SW visible
21 Jun 4.3 23:42:31 10° NNE 23:43:56 11° NE 23:45:21 10° ENE visible
22 Jun 1.6 01:19:21 10° NNW 01:23:26 67° ENE 01:26:08 20° SE visible
22 Jun 3.2 02:59:46 10° W 03:01:31 12° WSW 03:02:21 12° WSW visible
22 Jun 4.1 23:46:11 10° N 23:48:40 15° NE 23:51:07 10° ENE visible
23 Jun 1.2 01:23:47 10° NNW 01:27:52 78° WSW 01:29:31 35° SSE visible
23 Jun 3.6 23:50:12 10° N 23:53:20 21° NE 23:56:26 10° E visible
24 Jun 1.5 01:28:19 10° NW 01:32:16 49° WSW 01:33:04 42° SSW visible
24 Jun 3.0 23:54:21 10° NNW 23:57:58 29° NE 00:00:29 16° E visible
25 Jun 2.2 01:32:59 10° NW 01:36:36 31° WSW 01:36:44 31° WSW visible
25 Jun 2.3 23:58:37 10° NNW 00:02:31 41° NE 00:04:15 26° ESE visible
26 Jun 2.9 01:37:52 10° WNW 01:40:30 20° W 01:40:30 20° W visible
26 Jun 4.1 22:26:19 10° NNE 22:27:29 11° NE 22:28:39 10° NE visible
27 Jun 1.6 00:02:57 10° NNW 00:07:01 64° ENE 00:08:06 44° ESE visible
27 Jun 3.5 01:43:11 10° WNW 01:44:21 13° W 01:44:21 13° W visible
27 Jun 3.9 22:29:52 10° N 22:32:13 15° NE 22:34:34 10° ENE visible
28 Jun 1.1 00:07:22 10° NNW 00:11:28 83° WSW 00:12:00 66° SSE visible
28 Jun 3.5 22:33:50 10° N 22:36:54 20° NE 22:39:42 11° E visible
29 Jun 1.5 00:11:54 10° NW 00:15:52 52° WSW 00:15:58 52° WSW visible
29 Jun 2.9 22:37:59 10° NNW 22:41:31 27° NE 22:43:43 17° E visible
30 Jun 2.3 00:16:33 10° NW 00:19:59 33° WSW 00:19:59 33° WSW visible
30 Jun 2.3 22:42:13 10° NNW 22:46:05 39° NE 22:47:47 26° ESE visible
